Other Surface Observations
Issued by NWS Upton, NY

Home | Current Version | Previous Version | Text Only | Print | Product List | Glossary On
Versions: 1 2 3 4 5 6 7 8 9 10 11 12 13 14 15 16 17 18 19 20 21 22 23 24 25 26 27 28 29 30 31 32 33 34 35 36 37 38 39 40 41 42 43 44 45 46 47 48 49 50
000
SXUS51 KOKX 220057
OSOOKX
NEW YORK CITY METROPOLITAN AREA WEATHER ROUNDUP
National Weather Service New York NY
800 PM EST SAT JAN 21 2017

CITY           SKY/WX    TMP DP  RH WIND       PRES   REMARKS
Central Park   CLOUDY    44  44 100 CALM      29.84S FOG
LaGuardia APRT CLOUDY    48  44  86 SW7       29.82R FOG
Kennedy INTL   FOG       45  45 100 SW10      29.84R VSB 1/2
Newark Liberty FOG       46  45  96 SW8       29.82S VSB 1
Teterboro APRT CLOUDY    47  45  93 SW3       29.81S FOG
Wall St Helipt CLOUDY    46  45  93 W8        29.84R

>>>>>>>>>>>>>>>>>>>>>>>>>>>>>>>>> KEY <<<<<<<<<<<<<<<<<<<<<<<<<<<<<<<
> SKY/WX - SKY CONDITION/PRESENT    : R : WCI - WIND CHILL INDEX    <
>          WEATHER (NA for Heliport): E : VSB - VISIBILITY IN MILES <
> TMP    - TEMPERATURE IN DEG F     : M : HX  - HEAT INDEX          <
> DP     - DEW POINT TEMPERATURE    : A : TC  - TEMPERATURE IN      <
> RH     - RELATIVE HUMIDITY        : R :       CELSIUS             <
> WIND   - DIRECTION/SPEED (MPH)    : K : VRB - VARIABLE WIND  DIR  <
> PRES   - PRESSURE (IN HG)         : S :                           <
>>>>>>>>>>>>>>>>>>>>>>>>>>>>>>>>> KEY <<<<<<<<<<<<<<<<<<<<<<<<<<<<<<<




USA.gov is the U.S. government's official web portal to all federal, state and local government web resources and services.